Tracking 29042 objects as of 20-Jun-2024
HD Live streaming from Space Station
objects crossing your sky now

ONEWEB-0532

Track ONEWEB-0532 now!
10-day predictions
ONEWEB-0532 is classified as:


NORAD ID: 55140
Int'l Code: 2023-004A
Perigee: 1,199.9 km
Apogee: 1,202.2 km
Inclination: 87.9 °
Period: 109.3 minutes
Semi major axis: 7572 km
RCS: Unknown
Launch date: January 10, 2023
Source: United Kingdom (UK)
Launch site: AIR FORCE WESTERN TEST RANGE (AFWTR)
Your satellite tracking list
Your tracking list is empty




NASA's NSSDC Master Catalog

Two Line Element Set (TLE):
1 55140U 23004A   24172.47554486 -.00000001  00000-0 -36160-4 0  9996
2 55140  87.9169 150.5296 0001490  86.9840 273.1462 13.17597204 71882
Source of the keplerian elements: AFSPC